Flag for Paraguay

Past Weather in 25°16'55"S, 57°38'06"W, Paraguay — Yesterday and Last 2 Weeks

Now
86 °F

Clear.


Feels Like: 85 °F
Forecast: 88 / 64 °F
Wind: 5 mph from West

Location: Asuncion / Aeropuerto
Current Time: Sep 27, 2020 at 7:40:08 am
Latest Report: Sep 27, 2020 at 7:00 am
Visibility: 2 mi
Pressure29.68 "Hg
Humidity: 40%
Dew Point: 59 °F
Location of 25°16'55"S, 57°38'06"WLocation

Past Weather in 25°16'55"S, 57°38'06"W — Graph

°F

25°16'55"S, 57°38'06"W Temperature Yesterday

Maximum temperature yesterday: 108 °F (at 1:00 pm)
Minimum temperature yesterday: 79 °F (at 1:00 am)
Average temperature yesterday: 93 °F

High & Low Weather Summary for the Past Weeks

 TemperatureHumidityPressure
High108 °F (Sep 26, 1:00 pm)100% (Sep 14, 9:00 am)30.24 "Hg (Sep 14, 9:00 am)
Low48 °F (Sep 22, 6:00 am)13% (Sep 22, 2:00 pm)29.50 "Hg (Sep 26, 4:00 pm)
Average76 °F52%29.96 "Hg
* Reported Sep 12 6:00 am — Sep 27 6:00 am, 25°16'55"S, 57°38'06"W. Weather by CustomWeather, © 2020

Note: Actual official high and low records may vary slightly from our data, if they occured in-between our weather recording intervals... More about our weather records

25°16'55"S, 57°38'06"W Weather History for the Previous 24 Hours

Scroll right to see more
 ConditionsComfort  
Time TempWeatherWind HumidityBarometerVisibility
6:00 am
Sun, Sep 27
84 °FClear.9 mph43%29.59 "Hg2 mi
5:00 am86 °FPassing clouds.12 mph40%29.56 "Hg4 mi
4:00 am84 °FPassing clouds.10 mph40%29.53 "Hg4 mi
3:00 am84 °FPassing clouds.10 mph40%29.53 "Hg4 mi
2:00 am86 °FPassing clouds.12 mph38%29.53 "Hg4 mi
1:00 am88 °FPassing clouds.13 mph35%29.56 "Hg4 mi
12:00 am90 °FPassing clouds.10 mph31%29.56 "Hg4 mi
11:00 pm
Sat, Sep 26
91 °FPassing clouds.12 mph30%29.56 "Hg4 mi
10:00 pm93 °FPassing clouds.13 mph28%29.56 "Hg4 mi
9:00 pm93 °FClear.10 mph28%29.56 "Hg4 mi
8:00 pm97 °FClear.15 mph27%29.53 "Hg4 mi
7:00 pm97 °FClear.12 mph28%29.53 "Hg2 mi
6:00 pm99 °FClear.15 mph29%29.53 "Hg2 mi
5:00 pm102 °FClear.17 mph24%29.50 "Hg2 mi
4:00 pm104 °FClear.20 mph23%29.50 "Hg2 mi
3:00 pm106 °FClear.24 mph19%29.53 "Hg4 mi
2:00 pm108 °FClear.23 mph16%29.53 "Hg6 mi
1:00 pm108 °FClear.25 mph17%29.56 "Hg6 mi
12:00 pm106 °FPassing clouds.25 mph18%29.62 "HgN/A
11:00 am106 °FPassing clouds.26 mph15%29.68 "HgN/A
10:00 am102 °FPassing clouds.21 mph17%29.71 "HgN/A
9:30 am95 °FSunny.16 mph26%29.71 "Hg10 mi
9:00 am91 °FSunny.18 mph30%29.71 "Hg10 mi
8:30 am90 °FSunny.16 mph29%29.74 "Hg10 mi
8:00 am88 °FSunny.17 mph31%29.74 "Hg10 mi
7:30 am86 °FSunny.16 mph33%29.74 "Hg10 mi
7:00 am84 °FSunny.14 mph35%29.74 "Hg10 mi
Weather by CustomWeather, © 2020

See weather overview